Weather Roundup
Issued by NWS Chicago, IL

Home | Current Version | Previous Version | Graphics & Text | Print | Product List | Glossary On
Versions: 1 2 3 4 5 6 7 8 9 10 11 12 13 14 15 16 17 18 19 20 21 22 23 24 25 26 27 28 29 30 31 32 33 34 35 36 37 38 39 40 41 42 43 44 45 46 47 48 49 50
000
NZUS59 KLOT 210210
HRRLOT

CHICAGO AREA WEATHER ROUNDUP
NATIONAL WEATHER SERVICE CHICAGO/ROMEOVILLE IL
800 PM CST SAT DEC 20 2014

NOTE: "FAIR" INDICATES FEW OR NO CLOUDS BELOW 12,000 FEET WITH NO
SIGNIFICANT WEATHER AND/OR OBSTRUCTIONS TO VISIBILITY.

* THESE STATIONS ARE NOT UNDER NWS QUALITY CONTROL. THEY ALSO MAY NOT
  REPORT WEATHER SUCH AS PRECIPITATION OR FOG.

ILZ005-006-012>014-019>023-210300-
NORTHEAST ILLINOIS

CITY           SKY/WX    TMP DP  RH WIND       PRES   REMARKS
OHARE          CLOUDY    32  26  78 S6        30.25S WCI  26
MIDWAY         CLOUDY    34  26  72 S8        30.27S WCI  27
AURORA         CLOUDY    32  26  78 S7        30.26S WCI  26
LANSING*       CLOUDY    31  27  84 S3        30.28R
JOLIET*        CLOUDY    32  27  80 S3        30.27S
WAUKEGAN       CLOUDY    30  24  78 CALM      30.24F
DUPAGE AIRPORT CLOUDY    32  26  78 S6        30.25S WCI  26
WHEELING       CLOUDY    32  24  72 S3        30.27S
KANKAKEE*      CLOUDY    32  28  86 S3        30.29S
MORRIS*        CLOUDY    32  30  91 S6        30.26S WCI  26
LEWIS AIRPORT* CLOUDY    32  27  81 S7        30.27R WCI  26
NORTHERLY IS     N/A     33  26  76 S6          N/A  WCI  28
$$

WIZ051-052-058>065-066-070>072-210300-
SOUTHEAST WISCONSIN

CITY           SKY/WX    TMP DP  RH WIND       PRES   REMARKS
MILWAUKEE      CLOUDY    31  24  75 S6        30.24F WCI  25
KENOSHA*       CLOUDY    31  25  78 S3        30.24F
RACINE*        CLOUDY    32  25  75 CALM      30.26F
BURLINGTON     CLOUDY    29  26  88 CALM      30.23F
WAUKESHA       CLOUDY    28  25  86 CALM      30.24F
WEST BEND      CLOUDY    30  25  80 CALM      30.22F
$$

INZ001>003-010>013-019-020-210300-
NORTHWEST INDIANA

CITY           SKY/WX    TMP DP  RH WIND       PRES   REMARKS
GARY*          CLOUDY    34  25  69 CALM      30.28S
MICHIGAN CITY* NOT AVBL
RENSSELAER*    NOT AVBL
VALPARAISO     CLOUDY    31  26  82 S6        30.27S WCI  25
$$

LMZ740>746-210300-
SOUTHERN LAKE MICHIGAN

STATION/POSITION TIME  SKY/WX   TEMP WIND        PRES    VSBY
                                AIR  DIR/SP/G
                 (UTC)          (F)  (DEG/KT/KT) (MB)    (MI)
HARRISON CRIB    0200            33  190/ 10/ 12   N/A
BURNHAM HARBOR   0200            33  180/  5/  8   N/A
CALUMET HARBOR   0200            33  170/  5/  7 1023.7S
BURNS HARBOR     NOT AVBL
MICHIGAN CITY    NOT AVBL
$$

ABBREVIATIONS USED IN REMARKS
   TC - TEMPERATURE IN CELSIUS
  WCI - WIND CHILL INDEX
   HX - HEAT INDEX
  VSB - VISIBILITY
$$


USA.gov is the U.S. government's official web portal to all federal, state and local government web resources and services.